Location: El Mouella
(16.4949°N, 9.1594°W)
Time: 18:03:57
(UTC+00:00)

Cosmos 407 Rocket - Pass Details

Date: 02 June 2020
Orbit: 743 x 787 km, 74.0° (Epoch: 04 July)

Event Time Altitude Azimuth Distance (km) Brightness Sun altitude
Rises 20:55:04 0° 339° (NNW) 3,271 7.6 -23.7°
Reaches altitude 10° 20:57:30 10° 336° (NNW) 2,342 6.8 -24.2°
Maximum altitude 21:02:42 56° 259° (WSW) 926 4.0 -25.2°
Enters shadow 21:04:28 38° 202° (SSW) 1,178 4.3 -25.5°
